Temp_Advection
nan nan nan nan nan nan nan nan nan nan nan nan nan nan nan nan nan nan nan nan nan nan nan nan nan nan nan nan nan nan nan nan nan nan nan nan nan nan nan nan nan nan nan nan nan nan nan nan nan
nan 0 0 0 0 -0 -0 -0 -0 -1 -0 0 -0 -0 -0 -0 0 0 0 0 0 0 -0 -0 -0 -0 0 0 -0 -0 -0 -0 -0 -0 0 0 0 0 0 -0 -0 0 0 -0 -0 -0 -0 -0 nan
nan -0 0 0 0 -0 -0 -0 -1 -1 -1 0 0 -0 -0 0 0 -0 -0 -0 0 0 0 -0 -0 -0 0 0 0 -0 -0 -0 -0 0 0 0 0 0 0 -0 0 -0 -0 -0 -0 -0 -0 -0 nan
nan 0 0 0 -0 -0 -0 -0 -0 -0 -1 0 0 -0 0 0 0 -0 0 0 -0 0 0 0 0 0 0 0 0 -0 -0 -0 -0 0 0 0 0 0 0 0 0 -0 0 -0 -0 -0 -0 -0 nan
nan 0 0 -0 -0 -0 -0 -1 -1 -0 -1 -0 0 -0 0 0 -0 0 0 0 0 0 0 0 0 0 0 0 -0 0 -0 0 0 0 0 0 0 0 0 0 -0 -0 -0 -0 -0 -0 -0 -0 nan
nan -0 -0 -0 -0 -0 -1 -1 -0 -1 -1 0 0 -0 0 0 0 0 0 0 0 0 0 1 1 0 0 0 0 0 0 0 0 0 0 -0 -0 0 0 0 0 0 -0 -0 -0 -0 -0 -0 nan
nan -0 -0 -0 -0 -0 -1 -0 -0 -0 -0 -0 -0 -0 0 0 1 0 0 0 0 1 0 0 0 0 0 0 0 0 0 0 0 0 0 -0 -0 -0 -0 0 0 0 -0 -0 -0 -0 -0 -0 nan
nan -0 -0 -0 -0 -0 -0 -1 -1 -1 -1 -1 1 -1 -0 -0 1 1 0 1 1 1 0 -0 0 0 0 -0 0 0 0 0 0 0 0 0 0 -0 -0 0 0 -0 -0 -0 0 -0 -0 -0 nan
nan 0 -0 -0 -0 -0 -0 -0 -1 -1 -1 -1 0 -0 -0 -0 -0 1 0 0 1 1 0 0 0 0 0 0 0 0 0 0 0 0 0 0 0 0 -0 0 0 0 -0 0 0 -0 -0 -0 nan
nan 0 -0 -0 -0 -0 -0 -0 -1 -0 -1 -0 0 0 -0 -1 -0 -0 0 -0 0 0 0 1 0 -0 0 0 0 0 0 0 0 0 0 0 -0 -0 0 0 -0 -0 0 0 -0 -0 -0 -0 nan
nan -0 -0 -0 -0 -0 -0 -0 -1 -0 -0 -0 -1 -0 -0 1 1 -0 0 -1 -0 0 0 0 0 0 0 0 0 -0 -0 0 0 0 0 0 -0 -0 0 0 -0 -0 -0 -0 -0 -0 -0 -0 nan
nan -0 -0 -0 0 -0 -0 -0 -1 -0 -0 -0 -0 -0 1 0 1 1 0 -0 -0 0 0 0 0 0 0 0 0 0 0 0 -0 0 0 0 0 -0 -0 0 0 -0 -0 -0 -0 -0 -0 -0 nan
nan -0 -0 -0 0 -0 -0 -0 -0 -1 -1 0 0 0 1 -1 -0 1 -0 0 0 -0 -0 -0 -0 0 0 0 -0 0 0 0 0 -0 0 0 0 0 0 0 -0 0 -0 -0 -0 -0 -0 -0 nan
nan -0 -0 -1 -0 0 -0 -0 -0 -1 -0 0 0 -0 0 1 1 0 0 0 0 -0 -0 -0 -0 0 0 0 0 0 -0 0 0 -0 0 0 0 0 0 0 -0 0 0 -0 -0 -0 -0 -0 nan
nan 0 -0 -0 -0 -0 -0 0 -0 -1 -0 -0 0 0 1 0 0 -0 -0 0 0 0 -0 -1 -0 0 0 0 0 0 0 0 0 -0 -0 0 0 0 -0 0 -0 -0 0 -0 -0 -0 -0 -0 nan
nan 0 -0 -0 -0 -0 0 0 0 -0 -0 -0 -0 0 -0 -1 1 -0 -0 0 0 0 0 -0 0 0 0 0 0 0 0 0 0 0 0 0 0 0 0 0 -0 -0 -0 -0 0 -0 -0 -0 nan
nan -0 -0 -0 -0 0 0 -0 -0 -0 -0 -0 -0 -0 -0 0 1 -0 1 1 0 0 -0 1 1 0 1 0 0 0 0 0 0 0 0 0 0 0 0 0 0 0 0 0 -0 -0 -0 -0 nan
nan -0 -0 -0 -0 0 0 -0 -1 -1 -0 -1 -0 -0 -1 -0 -0 1 1 1 1 1 0 1 0 1 0 0 0 0 0 0 0 0 0 0 0 0 0 0 0 0 0 0 0 -0 -0 -0 nan
nan 0 -0 -0 -0 0 0 -0 -1 -1 0 -0 -0 -0 -0 -1 0 1 1 1 1 1 0 1 1 1 0 0 -0 -0 0 0 0 0 0 0 0 0 0 0 0 0 0 0 -0 -0 -0 -0 nan
nan 0 -0 -0 -0 0 0 -1 -0 -0 -0 -1 -1 -1 -0 0 1 1 1 0 -1 0 0 1 1 0 0 0 0 0 0 0 0 0 0 0 0 0 0 0 0 0 0 -0 -0 -0 -0 -0 nan
nan -0 -0 -0 -0 -0 0 -0 -0 -0 -0 -1 -0 -1 -0 0 0 0 -0 -1 -0 1 0 1 0 0 0 1 0 0 -0 -0 0 -0 0 0 0 0 0 0 0 0 0 0 -0 -0 -0 -0 nan
nan -0 0 0 -0 -0 0 0 -0 -1 0 -0 -1 -1 -0 0 0 -0 -0 0 0 0 3 3 1 0 0 0 -0 -0 -0 -0 -0 0 0 0 0 0 0 0 0 0 0 0 -0 -0 -0 -0 nan
nan 0 0 0 0 -0 0 -0 -1 -0 -0 0 -1 -3 -1 0 0 -0 1 0 1 1 1 3 3 2 1 0 0 0 1 0 0 1 0 0 0 0 0 0 0 0 0 0 -0 -0 -0 -0 nan
nan -0 -0 0 0 -0 -0 -0 -0 -0 -0 0 -0 -2 -1 1 0 0 1 1 1 0 1 -0 1 2 2 1 1 1 1 1 1 -0 0 -0 -0 0 0 0 0 0 0 0 -0 -0 -0 -0 nan
nan -0 -0 -0 -0 -0 -0 0 -1 -0 -0 0 -1 -2 -0 1 1 1 1 -0 0 1 1 -1 -1 -0 0 1 1 1 0 0 -0 0 0 0 1 0 0 0 0 0 0 0 0 -0 -0 -0 nan
nan -0 -0 -0 0 -0 -0 -0 -0 -0 -0 -0 -0 -1 1 1 1 1 1 -0 0 1 0 1 -1 -1 -0 -0 0 0 0 0 0 1 0 1 0 0 0 0 0 0 0 0 -0 -0 -0 -0 nan
nan -0 -0 0 0 0 -0 -1 -1 -0 -0 -0 -0 1 1 0 1 1 1 1 1 0 0 0 0 0 -0 0 1 0 0 1 1 0 0 1 0 0 0 0 0 0 0 -0 -0 -0 -0 -0 nan
nan 0 -0 -0 -0 0 0 -0 0 -0 -0 -0 -0 0 0 0 -0 0 0 1 0 0 0 -0 0 0 1 1 1 1 1 1 0 0 0 0 0 0 0 0 0 0 -0 -0 -0 -0 -0 -0 nan
nan -0 -0 -0 -0 0 0 0 -0 -0 -0 -0 0 0 0 2 1 0 1 0 0 0 0 0 0 1 1 1 1 1 0 0 0 0 0 0 0 0 0 0 0 0 -0 -0 -0 -0 -0 -0 nan
nan nan nan nan nan nan nan nan nan nan nan nan nan nan nan nan nan nan nan nan nan nan nan nan nan nan nan nan nan nan nan nan nan nan nan nan nan nan nan nan nan nan nan nan nan nan nan nan nan
Wind_Speed
11 8 12 7 1 2 6 7 3 6 4 4 5 6 12 5 5 4 13 28 32 30 30 28 25 23 19 17 14 13 11 9 7 4 3 3 4 5 5 5 6 6 7 7 7 7 8 8 8
6 6 6 3 3 6 6 5 7 9 7 6 5 10 3 2 5 17 30 23 31 31 32 29 26 23 20 17 15 13 11 9 7 6 5 5 5 5 6 6 7 7 7 8 8 8 8 8 9
2 2 4 3 4 9 4 5 10 14 20 11 2 4 5 10 10 31 27 28 32 33 33 29 24 22 20 18 15 13 11 9 8 7 7 6 6 6 7 8 8 8 8 9 9 9 9 9 9
2 1 3 2 5 5 4 4 2 4 14 11 7 6 6 2 28 23 31 30 32 34 32 28 24 22 20 17 15 13 12 10 8 8 8 7 7 8 9 9 9 9 9 10 10 10 10 10 10
1 1 1 2 4 6 6 11 15 8 8 2 9 4 5 19 16 24 32 30 32 34 31 27 25 21 19 17 15 14 12 11 10 9 9 9 9 9 10 10 10 10 10 10 11 11 11 11 11
2 2 1 4 4 6 9 18 17 14 23 13 1 10 6 13 18 29 32 31 30 33 31 27 23 20 18 15 15 14 13 12 12 11 10 10 10 10 10 10 10 11 11 11 11 11 11 11 12
3 2 3 3 4 5 6 11 6 13 18 17 9 7 10 20 23 34 31 27 32 32 30 27 23 21 18 16 15 14 14 14 13 13 13 11 11 10 10 10 10 11 11 12 12 11 11 10 10
3 2 3 2 2 6 4 16 18 14 16 22 23 7 8 30 38 33 31 29 31 32 31 28 25 22 18 17 15 14 14 14 15 15 14 13 11 10 10 9 9 10 11 11 12 12 12 11 10
2 0 6 5 3 7 13 9 21 19 14 15 19 8 12 40 39 35 34 31 31 34 31 28 25 20 18 17 16 16 15 16 16 15 14 13 11 10 9 9 9 9 10 10 11 11 12 12 11
1 3 6 6 6 6 11 13 22 11 22 6 8 6 24 45 43 41 41 37 35 36 32 29 26 21 19 18 17 16 17 17 16 16 14 12 11 10 9 8 9 9 9 9 10 11 11 11 11
2 3 5 13 20 20 15 12 19 13 4 15 19 11 27 41 44 43 40 38 36 35 33 30 26 22 20 19 18 18 18 17 16 15 13 11 10 9 9 8 9 9 9 9 9 9 9 10 10
4 12 15 16 16 11 6 9 11 7 8 17 13 12 26 33 41 46 43 37 35 36 34 30 26 23 21 20 19 17 17 16 16 15 13 10 9 8 8 8 8 8 8 8 8 8 9 9 9
5 5 13 19 25 22 19 5 6 19 16 15 11 12 25 34 20 36 42 35 33 35 33 30 27 25 24 21 19 19 18 16 14 14 12 10 8 7 8 7 7 7 7 7 7 8 8 8 7
7 13 15 18 20 18 12 6 4 11 14 20 9 13 24 34 30 25 39 37 35 35 34 29 27 26 25 23 20 19 17 16 14 13 11 9 8 7 7 7 7 6 6 7 7 7 7 7 6
10 6 7 9 12 5 8 11 9 14 9 17 10 9 21 35 25 28 39 39 38 37 36 32 27 27 26 24 21 19 18 17 15 13 11 10 8 7 7 7 6 6 5 6 6 7 7 7 6
2 1 4 4 3 7 3 16 7 4 11 18 13 9 21 28 26 36 37 41 41 41 38 34 31 28 27 24 21 20 18 17 16 14 12 10 8 6 6 6 6 6 5 5 6 7 7 6 6
6 5 4 7 5 3 5 9 5 6 8 14 17 16 14 21 30 36 42 46 45 44 41 37 34 32 28 24 22 20 19 17 16 14 12 9 7 6 5 5 5 5 4 5 6 7 7 7 6
4 4 5 6 4 4 9 15 17 24 10 17 24 23 17 22 28 28 39 41 45 45 41 38 36 34 31 28 25 22 20 18 15 13 11 9 7 5 4 4 5 4 4 4 5 6 7 7 6
5 5 9 8 8 3 7 12 14 20 7 15 22 17 14 24 25 27 22 24 35 44 44 42 40 38 36 33 30 27 23 20 17 14 11 9 7 5 4 4 4 4 4 4 5 6 6 6 5
7 8 8 8 4 6 9 15 15 13 7 18 24 24 19 13 26 34 38 36 42 44 46 43 42 41 37 33 29 26 23 19 14 12 10 8 6 5 5 5 5 4 3 4 4 5 6 7 7
6 6 5 5 7 6 6 9 7 8 9 21 25 26 22 14 23 30 37 41 39 50 50 45 43 41 37 34 30 28 23 20 18 14 11 9 7 5 5 6 6 4 3 2 3 4 5 6 8
4 4 5 6 5 3 4 6 6 10 10 8 21 22 21 14 17 29 29 28 33 44 50 46 47 43 38 35 32 30 28 24 19 15 13 12 9 6 6 7 7 5 4 2 2 3 4 5 5
7 2 5 4 4 4 3 1 7 4 6 8 10 24 20 19 18 24 27 25 34 37 32 46 45 42 38 35 32 28 27 23 22 19 15 12 9 6 9 8 6 6 4 1 1 3 4 4 4
3 4 5 1 1 2 4 5 7 3 6 5 7 22 25 23 19 19 23 27 32 34 34 23 39 37 36 34 31 28 27 22 19 17 13 10 9 11 12 10 7 5 3 2 2 2 3 4 6
3 5 4 5 3 5 3 1 10 8 8 7 9 23 28 25 23 23 26 29 31 32 38 40 31 26 33 33 33 31 25 18 15 15 16 14 15 14 11 9 8 6 4 3 2 3 5 6 7
4 6 4 4 3 5 3 5 6 4 3 2 7 19 22 23 19 23 26 27 31 34 37 39 34 26 14 18 21 25 17 18 18 15 14 14 14 14 13 11 8 6 4 3 3 5 8 9 11
2 3 4 2 1 2 3 8 10 4 1 5 7 9 19 18 16 22 23 26 28 31 35 40 32 32 22 24 33 24 17 18 16 17 16 16 17 15 13 10 7 5 4 4 6 8 10 11 12
4 1 2 2 2 5 5 6 6 7 5 7 4 3 16 19 19 20 24 28 28 31 33 35 37 34 34 33 29 26 22 19 16 18 16 16 15 13 11 9 6 5 5 7 9 10 9 9 10
3 3 3 2 4 3 3 6 6 5 7 6 2 2 10 25 24 24 27 24 23 20 20 24 28 29 27 27 24 23 20 18 18 17 18 17 15 12 9 7 4 5 6 6 6 8 9 11 12
4 7 6 4 4 4 3 8 3 4 4 3 4 6 11 17 25 26 29 25 20 21 21 22 21 23 23 23 22 20 20 20 21 21 19 16 13 10 7 5 5 4 4 5 7 9 12 14 16
Wind_Direction
303 252 219 209 120 164 211 236 262 287 272 266 233 162 164 102 158 193 150 165 163 161 162 158 161 165 163 159 155 154 155 156 158 161 150 122 106 91 79 73 66 62 58 53 45 39 37 36 38
292 196 191 199 160 205 219 234 230 236 246 92 58 106 84 123 141 141 149 163 170 165 164 163 169 166 164 161 160 162 164 166 168 158 141 124 110 96 88 82 77 72 65 57 52 50 50 51 54
250 209 166 162 205 218 208 208 237 267 268 257 226 75 117 145 160 150 157 161 172 169 168 168 167 166 165 163 162 163 166 164 159 150 136 123 112 102 95 88 80 73 68 64 61 60 59 61 65
345 160 248 171 252 276 233 245 307 269 259 231 189 89 110 192 154 158 160 164 173 171 168 166 167 168 166 163 163 162 161 158 153 146 136 127 116 107 97 90 84 78 73 69 68 67 68 70 75
46 311 293 265 254 276 286 285 300 300 297 269 164 166 117 155 164 161 166 169 176 171 167 167 169 170 165 163 163 160 157 154 149 143 135 127 117 106 98 91 85 81 77 74 73 71 73 79 87
228 117 5 248 254 265 292 284 286 273 280 281 184 121 136 172 172 165 168 168 175 171 167 166 170 167 166 165 162 160 156 152 147 140 134 125 116 107 101 96 91 86 82 78 76 72 73 84 95
140 100 219 280 277 301 253 348 243 256 268 270 216 129 141 169 169 167 171 172 173 172 167 168 169 168 166 166 164 159 154 151 145 138 133 125 116 107 101 98 95 89 83 78 76 73 71 78 89
245 173 214 240 256 275 273 351 329 309 290 286 217 166 167 173 167 169 166 170 174 172 171 172 171 170 170 166 163 158 154 150 145 140 133 126 119 111 102 100 93 90 84 78 74 74 67 69 75
209 168 257 250 231 267 324 338 325 323 299 267 225 196 199 166 169 169 167 171 173 175 176 174 171 171 171 167 164 159 154 150 145 138 135 130 122 114 109 102 98 91 88 80 71 67 60 63 67
245 222 220 221 259 282 309 340 310 334 320 347 220 187 174 166 169 172 173 175 177 178 179 176 174 173 173 170 166 160 155 152 144 141 138 133 126 117 114 108 103 98 93 84 72 62 64 66 69
248 230 245 274 276 286 295 311 321 324 311 337 313 201 181 184 173 180 181 182 182 181 179 179 176 175 175 173 168 163 158 153 146 144 141 137 129 126 115 108 103 98 91 81 75 67 71 68 68
236 243 252 272 285 306 304 305 307 273 288 342 310 231 186 169 178 181 180 186 182 183 181 178 178 177 175 176 168 166 162 157 154 147 141 133 132 126 119 111 108 105 97 81 71 62 58 62 65
247 257 269 281 291 291 297 234 262 284 293 324 347 222 203 184 195 180 183 189 188 186 183 181 180 179 177 176 170 168 164 162 159 151 145 140 134 125 123 120 115 112 96 76 65 63 56 54 58
305 301 288 297 288 279 279 249 250 260 266 296 311 265 219 220 241 178 185 187 191 190 182 185 183 180 178 177 173 169 167 165 164 159 152 150 146 139 131 126 122 113 95 76 65 60 57 50 49
287 296 304 262 265 273 294 280 212 252 271 278 290 283 231 231 226 241 198 193 195 194 184 188 186 183 182 178 172 172 171 171 171 165 162 161 155 143 139 135 129 117 93 75 59 49 48 43 35
271 340 329 292 270 262 183 269 94 311 302 290 296 295 226 219 232 210 207 200 198 196 191 186 191 188 184 179 175 174 175 173 173 169 167 167 162 150 147 145 137 127 104 81 66 54 49 41 44
18 304 278 305 237 259 198 290 298 312 327 297 297 306 255 234 226 226 218 208 199 198 192 190 191 190 186 182 179 179 176 177 173 171 170 169 166 156 152 149 141 128 110 87 60 51 50 47 43
294 307 289 269 299 220 259 273 282 283 258 272 286 292 278 229 220 228 214 197 199 197 194 193 189 191 188 185 181 177 177 175 173 174 171 171 166 158 159 161 149 134 111 85 68 58 47 44 40
231 256 254 268 278 300 250 268 281 283 234 256 272 281 288 239 230 226 257 254 208 194 195 192 190 189 190 187 183 179 178 173 172 173 168 168 163 162 164 173 159 146 124 88 65 51 44 39 44
263 263 270 286 294 306 285 277 277 277 240 248 261 267 278 297 215 206 201 204 232 208 198 194 189 191 191 191 185 181 177 171 172 172 166 170 167 171 169 176 165 161 131 90 63 40 29 21 22
279 251 270 260 325 281 294 280 265 268 246 254 254 255 262 282 213 199 200 208 201 208 197 197 192 192 191 190 182 178 175 176 174 173 173 172 169 177 185 184 180 178 158 120 66 38 24 17 12
291 239 278 288 352 261 65 292 259 269 268 229 241 244 245 264 233 207 210 210 208 228 199 197 194 190 188 189 187 187 179 177 172 172 173 168 167 176 187 201 183 180 191 140 48 25 15 8 2
238 275 259 277 271 320 323 87 274 277 288 265 247 246 240 250 227 208 211 194 205 215 190 192 192 189 188 190 191 187 177 173 178 179 184 209 200 196 182 196 186 188 197 174 353 356 349 346 343
285 331 301 213 162 346 242 157 279 255 229 280 243 240 234 241 228 212 207 206 206 213 221 191 180 183 188 186 184 186 180 180 189 195 189 169 187 191 192 189 195 193 206 246 313 326 332 327 331
105 52 333 349 0 235 149 346 250 251 261 237 239 238 224 229 209 203 195 173 177 190 203 199 190 185 193 185 187 190 207 204 195 202 184 188 194 184 182 185 199 202 220 240 279 315 318 319 319
191 150 152 268 270 275 242 232 258 231 289 332 304 246 207 207 202 208 206 199 208 202 190 181 186 193 212 213 206 207 199 199 195 183 196 183 185 179 183 188 199 208 231 263 299 314 311 314 312
157 178 182 207 238 24 263 294 307 345 21 350 3 191 187 197 190 200 199 196 197 200 201 196 190 190 202 203 216 200 195 194 179 187 188 184 181 181 180 183 199 225 241 289 313 309 311 315 314
197 215 65 0 291 288 286 279 240 320 331 312 346 235 194 186 179 183 191 189 183 189 193 197 193 198 200 197 194 190 184 179 180 189 183 183 178 177 177 188 201 239 284 313 315 316 322 326 321
120 260 220 179 168 221 294 264 216 264 300 267 238 206 202 178 186 179 177 179 175 176 179 188 196 198 191 189 182 174 173 177 181 187 183 182 177 178 182 193 229 279 305 312 318 326 327 320 317
193 214 172 150 243 232 169 271 233 240 292 270 199 165 179 178 182 182 170 168 181 185 187 188 191 185 179 170 169 168 176 180 179 180 178 177 183 185 198 225 253 284 316 327 325 323 321 318 315
Height
1514 1513 1514 1517 1525 1519 1514 1508 1494 1494 1493 1485 1483 1482 1484 1486 1490 1504 1494 1498 1503 1506 1512 1516 1520 1522 1525 1527 1530 1532 1533 1535 1536 1536 1536 1536 1536 1535 1535 1534 1533 1533 1532 1531 1530 1530 1529 1528 1527
1512 1513 1514 1514 1524 1517 1510 1499 1494 1488 1487 1487 1484 1482 1483 1487 1486 1488 1493 1500 1505 1507 1511 1515 1518 1521 1524 1526 1528 1531 1533 1534 1535 1536 1536 1536 1536 1535 1535 1534 1534 1533 1532 1532 1531 1530 1530 1529 1528
1512 1512 1513 1515 1517 1509 1507 1493 1492 1487 1485 1486 1485 1483 1483 1484 1485 1487 1491 1497 1503 1507 1510 1515 1518 1521 1524 1526 1527 1529 1531 1533 1534 1535 1536 1536 1536 1536 1535 1535 1534 1534 1533 1533 1532 1531 1530 1530 1529
1512 1513 1514 1515 1515 1503 1497 1489 1488 1487 1481 1481 1482 1484 1486 1484 1484 1487 1493 1497 1503 1507 1511 1514 1518 1521 1523 1525 1527 1528 1530 1532 1534 1535 1535 1536 1536 1536 1536 1535 1535 1535 1534 1533 1533 1532 1531 1530 1530
1511 1512 1517 1517 1511 1504 1495 1491 1490 1489 1484 1482 1480 1486 1485 1486 1488 1489 1495 1497 1501 1507 1511 1515 1517 1521 1523 1525 1526 1528 1529 1531 1533 1534 1535 1536 1536 1536 1536 1536 1536 1535 1535 1534 1533 1533 1532 1531 1531
1511 1511 1521 1520 1511 1503 1495 1493 1493 1489 1484 1484 1482 1482 1487 1487 1487 1490 1496 1499 1503 1507 1511 1515 1518 1521 1524 1526 1526 1527 1528 1530 1532 1533 1534 1535 1536 1536 1536 1536 1536 1536 1536 1535 1534 1534 1533 1532 1531
1511 1514 1515 1512 1510 1504 1497 1493 1490 1487 1483 1481 1480 1478 1486 1487 1488 1488 1497 1500 1504 1508 1511 1515 1519 1521 1523 1525 1527 1528 1528 1529 1531 1532 1534 1535 1537 1537 1537 1537 1537 1536 1536 1536 1535 1535 1534 1533 1533
1509 1510 1511 1509 1510 1506 1495 1493 1491 1487 1480 1477 1476 1473 1483 1483 1487 1488 1496 1501 1504 1509 1511 1514 1518 1521 1523 1524 1527 1528 1528 1529 1530 1532 1533 1535 1536 1537 1538 1538 1538 1538 1537 1537 1536 1536 1535 1535 1534
1509 1513 1509 1506 1505 1499 1493 1493 1487 1485 1481 1477 1472 1471 1471 1478 1484 1489 1494 1499 1504 1507 1509 1513 1518 1521 1523 1525 1527 1528 1529 1530 1531 1532 1533 1534 1536 1537 1538 1539 1539 1539 1539 1538 1537 1537 1536 1536 1535
1509 1509 1508 1503 1499 1497 1493 1494 1489 1484 1477 1472 1471 1470 1472 1477 1479 1485 1489 1494 1499 1502 1507 1512 1516 1519 1523 1525 1527 1528 1529 1530 1531 1533 1534 1535 1536 1537 1538 1539 1539 1539 1539 1538 1538 1537 1537 1536 1536
1508 1509 1504 1499 1496 1495 1492 1492 1490 1485 1479 1477 1475 1469 1470 1476 1477 1481 1487 1490 1495 1501 1506 1511 1515 1517 1521 1524 1526 1528 1529 1530 1531 1532 1534 1535 1535 1537 1538 1539 1539 1539 1539 1539 1539 1538 1537 1537 1536
1507 1502 1500 1496 1494 1492 1491 1490 1488 1483 1480 1478 1473 1472 1471 1476 1477 1476 1483 1490 1495 1500 1505 1510 1514 1517 1520 1523 1525 1527 1529 1530 1531 1532 1533 1534 1535 1537 1538 1538 1539 1539 1540 1539 1539 1539 1538 1537 1537
1501 1498 1497 1494 1491 1488 1487 1485 1485 1480 1478 1476 1474 1472 1471 1470 1477 1479 1479 1488 1495 1498 1503 1508 1511 1515 1519 1521 1523 1527 1528 1529 1531 1532 1532 1534 1535 1536 1537 1538 1539 1539 1540 1540 1540 1540 1539 1538 1537
1499 1497 1494 1491 1487 1485 1484 1480 1481 1475 1476 1474 1473 1473 1470 1469 1456 1473 1477 1485 1492 1496 1501 1508 1510 1514 1517 1519 1521 1525 1527 1528 1530 1531 1532 1533 1534 1535 1536 1537 1538 1540 1540 1540 1540 1540 1539 1538 1538
1497 1497 1491 1487 1484 1482 1479 1471 1470 1472 1472 1471 1473 1471 1467 1461 1463 1471 1478 1482 1488 1495 1499 1505 1510 1512 1515 1517 1519 1523 1525 1527 1529 1530 1532 1533 1534 1535 1535 1536 1537 1539 1540 1540 1540 1540 1539 1539 1538
1497 1496 1499 1485 1482 1478 1478 1466 1470 1470 1470 1468 1467 1470 1471 1469 1463 1474 1477 1480 1484 1489 1496 1502 1507 1511 1513 1515 1518 1521 1524 1525 1527 1529 1531 1532 1533 1534 1535 1535 1537 1538 1539 1540 1540 1540 1540 1539 1538
1504 1499 1497 1489 1479 1478 1478 1469 1461 1466 1468 1465 1465 1467 1470 1470 1472 1472 1478 1477 1476 1484 1491 1498 1503 1507 1512 1514 1517 1521 1524 1526 1527 1528 1529 1531 1532 1533 1535 1535 1536 1538 1538 1538 1539 1539 1539 1539 1538
1507 1500 1496 1492 1480 1479 1477 1470 1461 1458 1463 1462 1460 1462 1462 1465 1467 1467 1466 1449 1471 1480 1488 1494 1500 1505 1508 1511 1514 1517 1523 1525 1527 1528 1529 1530 1531 1533 1535 1535 1536 1537 1538 1538 1537 1538 1538 1538 1538
1502 1499 1497 1487 1478 1477 1475 1468 1459 1454 1459 1458 1457 1458 1456 1457 1458 1458 1460 1453 1467 1473 1484 1489 1494 1499 1503 1506 1509 1513 1518 1522 1524 1527 1528 1529 1530 1531 1533 1535 1536 1537 1537 1538 1537 1537 1537 1537 1538
1497 1498 1491 1482 1476 1476 1471 1464 1454 1452 1452 1452 1452 1453 1452 1454 1456 1456 1460 1463 1471 1475 1479 1484 1488 1495 1500 1505 1506 1511 1515 1520 1523 1525 1528 1528 1529 1530 1532 1534 1534 1536 1537 1537 1537 1537 1537 1537 1537
1495 1494 1488 1486 1479 1472 1469 1464 1455 1446 1445 1444 1444 1447 1447 1450 1452 1456 1463 1470 1470 1466 1474 1480 1484 1491 1497 1502 1504 1508 1513 1517 1519 1522 1525 1526 1527 1529 1531 1532 1533 1536 1537 1536 1535 1536 1536 1536 1537
1496 1484 1484 1483 1486 1491 1470 1473 1457 1442 1440 1438 1436 1439 1442 1441 1446 1450 1453 1457 1462 1465 1465 1474 1481 1485 1492 1498 1501 1503 1504 1510 1515 1518 1521 1522 1524 1527 1529 1532 1532 1534 1537 1534 1534 1534 1534 1535 1535
1489 1483 1484 1483 1487 1486 1475 1489 1453 1444 1439 1436 1430 1431 1434 1437 1441 1445 1447 1450 1456 1462 1461 1469 1479 1481 1488 1496 1500 1503 1504 1506 1510 1512 1516 1518 1518 1521 1525 1532 1532 1534 1536 1534 1534 1533 1534 1534 1534
1481 1483 1482 1481 1486 1500 1472 1478 1455 1445 1434 1428 1424 1425 1428 1433 1437 1441 1444 1450 1455 1460 1460 1467 1473 1480 1486 1490 1496 1501 1502 1502 1507 1510 1511 1514 1514 1520 1526 1528 1532 1533 1534 1534 1533 1532 1532 1533 1533
1480 1492 1506 1504 1499 1490 1469 1479 1451 1432 1427 1426 1422 1419 1423 1430 1433 1437 1441 1446 1453 1461 1468 1466 1471 1480 1485 1486 1492 1496 1498 1500 1502 1505 1507 1508 1515 1517 1521 1526 1531 1531 1533 1532 1531 1530 1531 1531 1532
1484 1487 1507 1505 1498 1488 1468 1468 1444 1426 1425 1422 1420 1415 1420 1425 1430 1434 1437 1441 1449 1455 1459 1461 1470 1478 1483 1487 1488 1491 1493 1495 1499 1505 1511 1510 1515 1516 1520 1524 1529 1530 1531 1531 1528 1528 1529 1529 1529
1482 1487 1479 1485 1489 1505 1476 1453 1432 1425 1425 1423 1420 1417 1420 1422 1427 1433 1435 1442 1447 1451 1455 1462 1470 1474 1477 1480 1489 1490 1492 1496 1499 1506 1509 1510 1514 1516 1519 1522 1525 1529 1528 1528 1526 1528 1528 1526 1527
1478 1479 1488 1499 1489 1478 1476 1464 1454 1433 1428 1426 1423 1421 1419 1422 1425 1431 1434 1439 1443 1448 1453 1460 1466 1471 1474 1481 1484 1487 1493 1499 1498 1507 1509 1513 1514 1516 1515 1520 1523 1527 1526 1524 1525 1526 1525 1525 1525
1481 1482 1480 1481 1486 1482 1479 1463 1436 1431 1429 1426 1423 1422 1422 1420 1423 1428 1434 1439 1444 1449 1455 1460 1464 1468 1472 1478 1484 1487 1492 1496 1500 1507 1509 1513 1512 1515 1517 1518 1521 1524 1522 1521 1524 1524 1523 1524 1522
1469 1470 1472 1482 1471 1478 1477 1458 1427 1426 1426 1425 1424 1424 1425 1425 1425 1428 1433 1439 1445 1449 1454 1458 1463 1466 1471 1477 1481 1482 1491 1495 1501 1508 1509 1510 1514 1515 1516 1517 1520 1519 1520 1521 1521 1522 1522 1520 1518